Theta_e
288 289 289 288 288 287 287 287 286 286 285 284 284 284 283 283 282 282 281 281 281 280 280 280 280 279 279 278 278 277 277 277 277 276 276 275 275 275 275 275 274 274 274 274 274 274 274 273 273 273 274 273 273 273 273 273 273 273 273 273 273 273 272 271 270 270 272 275 274 274 274 275 274 274 274 275 275 276 278 276 276 276 276 276 276
288 288 288 288 287 287 287 286 286 285 284 283 283 283 283 282 282 281 281 281 280 280 280 280 279 279 278 278 277 277 277 276 276 276 275 275 275 275 274 274 274 274 274 273 273 274 273 273 273 273 273 273 273 272 273 272 272 272 272 272 272 272 273 271 271 270 269 272 273 274 274 275 273 275 274 274 274 276 275 276 276 276 276 276 276
288 288 287 287 287 287 286 285 285 284 284 283 283 283 283 282 282 281 280 280 280 280 280 279 279 278 278 277 277 276 276 276 276 275 275 275 274 274 274 274 274 273 273 273 273 273 272 272 272 272 272 272 272 272 273 272 273 272 272 272 272 272 272 272 271 269 269 270 272 272 272 273 273 274 275 275 275 275 275 275 275 276 277 276 276
288 287 287 287 286 286 285 285 284 284 284 284 283 283 283 282 281 281 280 280 279 279 279 279 278 278 277 277 276 276 276 275 275 275 275 275 274 274 273 273 273 273 273 272 272 272 272 272 272 272 272 271 271 272 272 272 272 272 272 272 272 272 272 272 272 270 270 269 271 271 273 273 274 275 275 276 275 275 275 275 276 276 276 276 276
287 287 287 286 286 285 285 284 284 283 284 284 283 283 282 281 280 280 280 279 279 278 278 278 277 277 277 276 276 275 275 275 275 275 274 274 274 274 273 273 273 272 272 272 273 272 272 272 272 272 272 271 271 271 271 271 272 272 271 272 272 272 272 272 272 272 271 270 271 273 274 274 274 275 275 275 275 275 275 275 275 275 276 276 276
288 287 286 286 285 284 284 284 284 284 284 284 283 283 282 281 280 280 279 278 278 278 278 277 277 277 277 276 276 275 275 275 274 274 274 274 273 273 273 272 272 272 272 272 272 272 272 272 272 273 272 271 271 271 272 271 272 271 271 271 271 272 272 272 273 272 272 271 272 271 273 273 273 274 275 276 275 274 275 275 276 276 275 276 276
287 287 286 286 285 284 284 284 284 284 284 284 283 282 281 280 279 279 279 278 277 277 277 277 277 276 276 275 275 275 274 274 274 273 273 272 272 272 272 272 272 272 272 272 272 272 272 272 272 273 272 272 272 271 271 271 272 271 272 272 273 272 272 273 273 273 272 272 272 273 272 274 274 273 276 277 276 275 274 274 274 276 276 276 276
287 286 286 285 285 285 285 285 285 284 284 283 282 282 281 280 279 279 278 278 277 277 276 276 276 276 275 275 275 274 274 273 273 273 272 272 272 272 272 271 271 271 271 272 272 273 273 273 273 273 273 273 272 272 272 271 272 272 273 273 273 273 273 273 273 273 272 272 272 272 273 273 274 275 276 276 275 275 275 275 273 274 275 276 276
286 286 285 285 285 285 285 285 284 284 283 282 281 281 280 279 279 278 278 277 277 277 276 276 275 274 274 274 273 273 273 273 273 272 272 271 271 272 271 271 271 271 271 272 272 272 272 273 273 273 273 274 275 275 275 275 273 273 274 274 274 274 273 273 273 273 273 273 272 274 273 273 274 274 274 274 274 274 275 276 275 275 276 276 276
286 285 285 285 285 285 284 284 283 282 282 281 281 280 279 278 278 277 277 277 276 276 275 275 274 274 273 273 273 273 273 273 275 277 276 272 271 271 271 271 271 271 271 271 272 272 272 272 273 275 276 276 277 278 279 279 280 279 278 277 277 275 275 274 274 274 273 273 273 273 273 273 274 274 274 275 276 276 275 275 274 275 275 275 276
285 285 285 285 285 284 283 283 282 281 281 281 280 279 278 278 277 277 276 276 275 274 274 274 274 274 273 273 272 272 273 273 277 279 279 278 272 271 271 271 271 271 271 271 272 272 273 274 274 275 276 277 277 279 279 280 280 280 280 280 279 277 275 274 274 275 274 273 274 274 273 273 274 275 275 275 276 276 275 275 275 274 273 272 271
285 285 285 284 284 283 283 282 281 281 280 280 279 278 278 277 276 276 275 274 274 274 274 274 274 273 273 272 272 272 272 276 279 280 280 279 276 272 271 272 272 272 272 272 273 274 274 274 275 275 276 276 275 275 276 278 278 279 279 279 279 280 280 277 275 274 275 274 273 274 274 273 274 275 275 275 275 275 275 275 274 274 273 273 273
284 284 284 283 283 282 282 281 280 279 279 279 278 277 276 276 275 274 274 274 273 273 274 273 273 273 272 272 271 271 271 278 280 281 281 280 279 275 272 272 272 272 273 274 274 274 275 275 275 275 275 277 276 275 273 273 276 277 278 278 278 279 279 280 280 277 276 275 274 274 274 275 274 274 275 275 276 274 275 274 274 274 274 273 273
284 284 283 282 282 281 281 280 279 279 278 277 276 276 275 275 275 274 274 273 273 273 273 272 272 271 272 271 271 271 271 277 281 281 282 282 281 277 272 273 273 274 275 275 275 275 275 275 274 273 274 274 274 274 273 273 273 274 274 274 275 276 278 279 279 279 279 276 275 273 275 276 274 275 276 277 276 274 274 274 275 274 274 274 275
283 283 282 282 281 280 280 279 279 278 277 276 275 275 274 274 274 274 274 273 273 272 272 271 271 271 271 271 271 271 271 277 281 281 282 282 282 279 274 275 275 275 275 275 275 275 275 274 273 273 273 273 273 274 273 273 274 274 274 275 275 276 276 276 276 276 276 276 276 276 276 277 277 277 277 278 277 277 277 276 276 276 276 277 277
282 281 281 281 281 281 280 279 278 276 276 275 275 275 274 274 274 273 273 273 272 272 271 271 271 270 271 270 270 270 271 278 280 282 282 282 282 277 274 274 274 275 275 275 275 274 273 273 273 273 273 273 274 277 277 276 275 274 274 275 275 276 276 278 279 280 279 278 278 277 277 277 280 278 278 278 278 278 278 278 277 276 275 273 272
282 281 281 281 281 280 280 279 277 276 275 275 274 275 274 274 274 273 272 272 271 271 271 271 270 270 270 270 269 269 269 276 281 281 282 282 280 274 274 274 275 274 274 274 273 273 273 273 273 272 272 272 275 277 278 278 275 274 274 274 274 274 275 276 279 280 280 280 280 280 281 281 281 282 282 282 279 278 274 272 271 272 270 269 270
281 281 281 281 280 279 280 279 278 276 275 275 275 275 274 274 273 272 272 271 271 271 270 269 269 270 270 269 269 269 269 275 281 281 281 281 279 274 274 274 273 273 272 273 272 272 272 274 274 273 273 273 276 277 278 277 275 275 274 273 273 273 274 276 275 276 278 278 278 279 279 279 279 279 278 278 277 276 271 269 270 271 270 270 269
279 279 280 279 278 278 278 278 278 276 275 275 275 275 274 273 273 272 272 271 271 270 269 269 268 268 269 269 272 270 268 274 280 280 280 280 278 274 274 272 272 272 271 270 272 272 272 274 275 275 275 275 277 278 278 277 275 274 274 274 273 272 273 274 273 272 272 273 274 273 272 272 271 270 270 275 276 275 272 271 271 270 269 270 271
278 278 277 276 276 277 278 278 277 276 275 275 275 274 273 272 271 271 271 270 269 269 269 268 268 267 268 268 270 269 268 269 275 279 280 280 280 274 273 272 271 271 271 270 269 271 272 273 274 276 277 277 277 278 278 278 276 275 275 273 272 272 273 272 272 273 274 272 270 269 268 268 269 269 270 270 271 272 272 272 272 272 272 272 272
277 276 274 274 275 277 278 278 277 276 276 275 274 273 272 271 270 270 269 268 268 268 267 267 267 267 267 268 268 268 268 268 272 279 279 280 280 277 272 272 272 271 270 270 270 271 272 273 273 275 276 276 276 277 277 278 278 276 275 273 273 273 275 273 273 274 270 268 267 266 266 267 268 268 269 270 271 271 272 273 273 273 272 270 270
275 274 274 275 276 276 276 277 276 275 274 273 272 271 271 270 269 269 268 268 267 267 267 267 266 266 266 267 268 268 270 271 270 277 279 279 280 279 273 272 273 271 270 270 271 272 273 273 272 273 275 275 276 277 278 278 278 275 274 276 277 277 274 273 271 268 266 265 264 265 265 265 266 267 268 269 270 271 271 272 272 272 272 272 271
275 275 275 275 275 275 275 275 274 273 272 272 272 271 270 269 269 268 268 267 267 266 266 266 265 265 265 266 267 268 269 271 273 274 278 279 279 279 277 275 276 273 271 271 272 272 273 273 272 273 274 275 276 277 277 277 276 273 275 276 276 276 274 269 267 265 264 264 264 264 264 265 266 266 267 268 270 271 271 271 271 272 272 272 272
276 275 274 274 274 273 273 273 273 272 272 271 271 270 269 269 269 268 268 267 267 266 266 266 266 265 265 265 266 267 269 270 273 275 276 279 279 279 279 277 277 274 274 272 273 273 272 271 271 273 275 276 276 275 275 274 272 274 274 275 274 273 268 265 264 263 263 263 263 264 264 265 266 267 268 269 270 270 271 271 271 271 271 272 273
275 275 274 273 273 272 272 272 272 271 271 271 270 269 269 268 268 268 268 268 268 267 266 266 265 265 265 265 266 267 268 269 271 274 276 277 278 278 278 278 277 277 274 273 273 272 273 274 274 275 275 274 273 273 271 270 272 272 273 273 271 265 264 263 262 263 262 263 264 264 265 266 267 268 269 270 270 271 270 270 271 272 272 272 272
275 275 274 273 273 272 271 271 271 271 271 271 271 270 269 268 268 268 267 268 268 267 266 266 266 266 266 266 267 267 268 268 270 272 274 275 276 277 277 277 277 277 275 273 274 274 274 274 273 272 271 270 269 268 267 267 271 271 271 269 264 263 262 262 262 262 263 264 264 264 265 266 267 269 269 270 269 269 269 269 269 269 269 269 269
276 275 274 273 272 271 271 271 270 270 270 271 271 270 270 269 269 268 268 268 268 267 267 266 266 266 266 267 267 267 267 267 268 269 271 271 272 274 275 275 276 275 272 270 271 269 270 270 269 270 269 269 268 268 267 267 264 263 263 263 262 262 262 262 262 263 264 264 264 265 266 267 268 268 268 268 268 269 270 269 268 268 268 268 268
276 276 274 273 271 271 271 269 269 270 270 270 270 269 269 269 269 268 268 268 268 267 266 266 266 267 267 267 267 267 266 266 267 267 268 269 269 270 271 271 271 270 269 269 269 268 266 266 264 262 261 260 260 259 260 260 261 262 261 261 262 262 264 267 268 265 264 265 265 265 266 266 266 267 268 268 268 269 269 268 268 267 268 268 266
275 275 274 272 271 270 270 270 270 270 270 269 270 270 269 269 269 270 270 270 270 269 267 267 267 268 268 268 266 266 266 266 266 271 269 271 269 269 269 270 270 270 270 271 266 263 262 259 259 258 257 257 258 257 258 259 259 260 260 260 261 261 262 261 261 262 263 264 264 264 265 266 266 267 268 267 268 268 269 268 268 267 267 267 266
274 274 272 271 270 269 269 270 269 269 269 269 269 269 270 272 271 269 269 272 274 274 273 269 269 270 269 269 269 267 266 267 272 273 273 274 274 273 273 273 273 271 272 273 267 259 258 256 256 255 256 256 257 257 258 258 258 259 259 262 262 261 261 262 262 263 263 264 264 265 265 266 266 267 267 267 267 268 268 269 267 267 266 265 265
275 273 271 270 270 269 269 269 268 268 268 267 267 266 266 269 273 273 272 273 274 275 275 274 274 274 271 268 270 272 271 273 274 275 275 276 275 275 275 275 275 274 273 266 260 257 256 255 256 255 256 256 257 257 258 258 258 258 259 259 260 261 262 262 262 263 264 264 264 265 266 266 266 267 267 267 267 267 267 268 267 267 266 265 265
276 275 273 271 270 268 268 268 267 267 267 266 266 265 265 265 267 272 274 273 274 275 276 275 275 275 274 272 270 270 273 275 276 276 276 276 276 276 276 275 275 274 272 270 257 256 255 254 254 255 255 256 257 257 257 257 258 258 258 259 259 260 261 261 263 263 263 264 264 265 266 266 267 267 267 267 267 266 266 266 266 265 265 265 265
276 276 274 271 269 267 267 266 266 266 266 265 265 265 265 265 265 266 270 274 275 275 276 276 276 276 275 274 274 273 274 276 277 277 277 276 276 275 275 275 274 273 270 260 256 256 254 254 253 254 255 255 256 256 257 257 257 258 258 258 259 260 261 262 264 263 263 264 265 266 266 266 267 267 267 267 266 265 266 265 265 265 265 264 265
276 276 276 272 269 267 266 266 266 265 266 265 265 265 266 266 266 267 267 268 271 274 276 276 276 276 275 275 275 276 277 277 277 277 276 276 275 275 274 272 273 271 266 257 256 254 254 253 253 254 254 255 256 256 256 257 257 258 258 259 259 260 261 262 262 262 263 265 265 266 266 266 267 266 266 266 266 266 265 265 265 264 264 264 264
276 273 271 270 270 268 267 267 266 266 266 265 265 266 266 267 267 267 267 268 269 269 270 272 275 276 273 274 276 277 277 277 277 276 276 275 275 275 273 266 262 258 257 254 255 253 254 254 253 254 254 254 255 256 256 256 257 257 257 258 258 259 260 261 261 263 264 265 266 266 266 266 266 266 266 265 265 265 265 265 265 265 264 264 264
276 276 275 271 270 269 268 267 266 266 266 266 266 266 267 267 267 268 269 269 269 269 269 270 271 274 276 275 277 277 277 277 276 275 275 275 274 272 263 260 258 256 254 253 253 254 254 253 252 252 253 254 255 255 256 256 256 256 257 258 259 259 259 259 261 262 264 266 266 266 267 266 266 266 266 266 265 265 265 265 265 265 265 264 265
276 275 275 272 270 269 268 267 267 267 268 266 266 266 267 267 268 268 269 269 269 269 269 269 270 271 273 271 274 276 277 276 275 275 274 273 273 265 260 260 258 255 254 253 253 253 252 251 252 251 252 253 254 254 254 255 255 256 258 258 258 258 258 260 262 264 265 265 266 266 266 266 266 266 265 264 265 265 265 265 265 265 265 265 265
276 275 275 273 270 269 268 267 266 267 267 266 266 266 267 267 268 268 268 268 268 268 268 268 269 268 268 269 274 273 273 275 274 272 270 267 260 257 256 256 255 255 253 252 252 251 250 249 249 250 252 252 252 253 253 254 255 256 256 257 258 258 263 262 263 264 265 265 266 266 267 266 266 265 265 264 264 264 264 265 265 264 264 265 265
274 274 274 274 272 269 268 267 266 266 266 266 266 266 266 267 267 268 268 268 267 267 268 268 268 267 268 269 270 271 271 266 261 258 256 254 254 255 254 254 253 252 252 251 251 251 249 249 250 251 251 251 252 252 253 254 255 255 256 256 257 258 259 261 262 264 264 265 266 267 267 267 266 265 265 264 264 264 264 264 265 264 264 264 264
272 273 273 273 271 269 268 267 266 266 266 266 266 266 266 267 267 267 267 267 266 267 267 266 266 266 266 267 268 268 264 262 260 257 255 254 253 252 253 252 252 252 251 250 249 249 249 249 249 249 250 250 250 251 253 253 254 255 256 256 257 258 260 261 262 264 264 266 266 267 267 267 266 265 264 264 264 265 265 264 264 264 264 264 264
273 273 271 273 271 269 267 266 266 266 266 266 266 266 266 266 267 267 266 266 266 265 266 265 265 265 265 266 271 268 263 261 258 257 255 254 253 252 252 252 251 250 250 250 249 248 248 248 248 249 249 250 250 251 252 252 253 255 256 257 257 258 260 262 263 264 265 266 267 267 267 267 266 264 263 264 266 266 265 265 265 264 265 265 264
273 273 271 269 270 268 267 266 266 266 266 266 266 266 266 266 266 266 265 265 264 264 264 264 264 263 265 270 270 269 262 258 257 256 254 254 253 252 252 251 250 250 249 248 248 248 248 248 248 249 249 249 249 250 251 252 253 254 255 256 257 259 260 262 263 264 265 266 267 267 267 266 266 265 264 266 264 264 264 264 264 264 264 264 264
273 272 271 269 268 267 266 266 266 266 265 265 266 265 265 266 265 264 264 263 263 263 263 261 261 261 265 270 269 266 258 256 255 255 254 253 252 252 251 250 249 248 248 248 248 248 247 247 247 248 248 249 249 250 251 252 253 254 255 256 257 259 260 262 263 264 266 266 267 267 267 266 265 263 263 263 264 264 264 264 264 264 264 264 264
272 271 269 268 268 267 266 266 265 265 265 265 265 265 264 264 264 263 263 263 262 262 261 260 260 262 264 267 264 258 256 255 255 254 253 253 252 251 249 248 247 247 247 246 246 246 246 246 247 248 248 248 249 249 251 252 253 254 256 257 259 260 261 262 263 264 266 266 267 267 267 266 264 263 263 263 263 263 264 264 264 264 264 264 264
271 269 268 267 266 266 265 265 265 265 264 263 263 263 263 263 263 263 262 262 260 260 260 259 260 262 262 260 257 256 255 254 253 253 253 252 252 250 248 247 247 247 246 247 246 245 245 246 247 246 248 248 249 250 251 252 253 255 256 258 259 260 261 262 264 265 267 267 268 267 266 265 263 262 262 263 263 263 263 264 264 264 264 264 263
269 268 267 266 265 265 264 264 264 264 263 263 263 262 262 262 262 261 261 260 260 259 259 259 260 260 258 257 256 254 254 253 253 253 252 251 251 248 246 246 246 246 246 246 246 245 246 246 246 247 247 248 249 250 251 252 254 256 257 259 260 261 263 264 265 266 267 268 268 267 266 264 263 263 263 263 263 264 264 264 264 264 264 264 264
267 266 266 265 264 264 263 263 263 262 262 262 262 262 261 261 261 260 259 259 259 258 259 259 258 257 256 255 254 254 253 253 252 252 251 250 248 246 245 245 245 246 246 246 245 246 245 246 246 247 247 248 249 250 251 252 254 256 258 260 261 262 263 265 266 266 268 269 269 267 265 264 263 262 263 263 263 263 263 263 264 264 264 264 264
266 265 264 264 263 262 262 262 261 261 261 261 261 261 260 259 259 258 258 258 258 258 258 257 257 256 255 254 253 253 253 252 252 251 250 249 247 245 245 244 245 245 245 245 245 245 246 245 246 246 247 248 249 250 251 252 253 255 258 260 262 263 264 265 266 268 270 270 269 266 265 263 263 262 262 262 262 263 263 263 264 264 264 264 264
264 263 263 263 262 262 261 261 260 261 260 260 259 259 258 258 258 257 257 257 257 257 257 256 255 254 254 252 252 251 251 251 250 250 249 247 245 245 244 245 246 245 244 244 245 244 245 244 246 246 247 247 248 249 251 253 254 256 258 260 262 264 264 266 268 269 270 270 268 266 265 263 262 262 262 262 263 263 263 263 264 263 263 264 264
263 262 262 261 261 261 261 261 261 260 260 259 259 258 258 257 257 256 256 256 256 256 255 255 254 253 252 251 251 251 251 251 250 249 248 246 245 244 245 244 244 243 243 244 244 245 244 243 244 245 247 247 248 250 251 253 254 256 257 260 262 264 267 269 269 270 271 270 268 266 264 263 262 262 262 262 262 263 263 263 263 264 263 263 263
261 261 261 260 260 260 260 260 260 259 259 258 258 257 257 257 256 256 255 255 254 254 254 254 253 253 252 252 252 251 251 250 250 249 248 246 245 245 245 245 245 244 243 243 244 244 244 244 245 246 246 249 249 250 252 253 255 256 260 262 265 267 268 269 269 270 271 269 267 265 264 263 262 261 262 262 262 262 263 263 263 263 263 263 263
Wind_Speed
14 15 14 15 14 15 15 14 14 12 11 12 13 12 11 12 12 11 8 12 11 12 13 13 13 13 13 12 13 12 12 11 9 9 9 8 7 7 7 7 7 5 5 5 4 5 6 5 5 4 4 4 4 4 4 3 4 5 5 5 6 6 7 9 13 19 21 7 11 10 4 9 14 2 12 12 8 8 11 9 10 12 11 10 11
15 17 14 14 15 15 14 11 11 11 12 11 12 12 12 12 12 10 13 12 12 13 13 12 12 13 13 12 12 12 11 11 10 9 9 9 8 6 8 8 7 6 6 6 6 5 5 5 5 4 4 5 4 5 4 4 4 5 6 6 7 7 6 8 12 13 23 20 10 13 10 6 16 7 8 15 15 7 11 11 8 10 11 11 11
16 13 13 13 16 15 12 11 12 13 14 13 14 14 13 12 11 14 13 12 12 12 13 12 13 13 12 12 12 12 12 11 10 10 10 10 10 8 8 8 9 8 8 7 6 5 5 5 5 4 4 5 5 5 4 5 5 7 7 6 7 7 7 8 9 14 18 22 17 16 15 7 10 15 14 11 12 11 13 14 11 9 9 11 13
12 11 12 14 14 12 13 13 13 14 15 15 16 14 12 11 11 13 12 11 13 11 11 12 12 13 13 12 12 12 12 11 10 10 10 11 10 10 9 9 8 8 7 7 6 6 6 6 5 5 5 6 5 5 5 5 6 7 7 7 7 8 7 7 9 11 14 18 22 13 16 17 14 8 9 13 14 14 13 14 12 13 12 11 12
11 12 13 14 13 14 14 14 15 16 17 14 16 14 13 12 11 13 12 12 12 11 11 11 12 13 13 14 13 12 12 11 11 10 9 9 9 9 9 8 8 7 7 6 6 6 6 6 6 5 5 6 6 6 5 7 7 7 7 6 7 7 7 8 9 10 13 17 20 18 13 16 15 12 9 14 15 11 12 15 17 14 13 12 12
12 12 12 13 13 15 15 14 17 18 18 15 15 14 13 13 13 11 13 14 12 12 13 12 13 14 13 12 12 12 11 11 11 11 10 9 9 8 8 8 7 7 7 6 6 6 6 6 6 6 7 7 7 6 6 8 7 7 8 7 7 7 9 9 10 11 13 16 15 19 19 14 16 16 8 11 18 16 13 14 14 12 11 15 14
12 13 13 14 14 15 15 17 17 17 16 15 13 12 13 13 13 14 13 13 14 13 13 13 11 12 12 11 12 12 11 11 11 10 11 10 10 9 8 8 7 7 7 7 7 7 6 6 7 8 8 8 7 7 7 7 7 8 8 8 8 9 10 10 11 13 14 15 16 15 17 16 11 20 15 10 12 16 17 16 20 15 10 13 17
13 13 13 14 15 16 17 17 16 15 13 12 12 13 13 12 13 12 12 14 14 15 15 14 11 11 11 11 10 10 11 11 10 10 9 9 9 9 9 8 8 7 6 6 6 7 7 7 8 8 8 8 7 7 7 8 7 9 8 8 9 11 11 11 11 12 14 14 16 14 14 16 15 20 15 17 15 18 14 12 18 18 21 19 16
12 13 13 15 16 16 15 13 12 12 12 12 13 13 13 13 12 12 12 12 11 12 12 12 12 11 10 10 11 10 11 11 10 11 11 10 10 10 10 9 8 8 6 7 7 7 7 7 7 7 8 11 15 13 12 11 8 8 9 10 10 10 9 9 10 10 11 12 14 13 15 17 15 17 16 15 16 15 19 13 18 21 15 16 21
13 14 15 17 15 13 13 11 11 11 12 13 14 13 13 12 13 13 13 13 11 11 11 11 12 13 13 11 10 10 10 8 11 18 14 10 10 8 8 8 8 8 8 8 8 8 8 8 7 13 15 15 15 16 17 18 19 14 10 7 7 8 8 9 9 9 9 11 10 9 11 13 15 12 19 16 18 21 20 21 21 20 21 18 19
12 13 16 15 12 10 10 11 11 12 13 12 10 12 13 12 12 12 12 12 12 12 12 13 12 11 13 13 12 10 9 8 18 20 20 19 11 10 9 9 9 9 9 8 8 8 8 8 8 10 11 12 12 17 17 18 18 19 20 19 16 12 10 10 9 8 10 13 15 14 16 18 20 20 17 22 17 16 21 17 18 20 16 21 21
12 13 14 10 10 12 12 11 12 12 11 12 12 12 11 12 12 12 12 12 11 10 12 13 12 11 10 11 11 11 10 14 22 22 22 22 18 12 10 9 10 9 9 9 8 8 8 7 7 6 6 6 6 7 12 16 17 18 19 19 20 22 21 16 13 11 10 10 12 14 16 17 21 15 18 16 19 20 19 20 19 21 17 22 16
13 13 12 11 12 12 11 12 12 12 12 12 11 11 12 12 12 12 13 11 10 12 13 12 12 11 11 12 12 11 10 19 23 25 24 24 24 17 9 10 9 9 10 10 9 8 7 8 7 5 4 10 10 7 6 7 14 18 19 19 20 22 22 24 25 19 14 14 15 17 16 15 19 22 16 19 19 19 21 17 21 15 20 18 24
12 12 9 10 11 11 11 11 12 12 11 11 11 12 13 14 12 10 10 10 12 11 11 12 12 12 12 13 12 11 12 18 24 23 22 23 23 17 8 9 9 10 10 9 8 8 9 7 6 4 4 6 7 7 6 7 8 9 10 11 11 15 21 24 26 27 23 17 17 20 21 17 22 17 21 19 19 20 16 20 17 19 18 23 24
10 9 10 10 9 10 11 12 12 11 11 12 12 12 13 11 12 12 12 14 14 14 14 13 12 12 12 11 11 10 9 17 20 21 20 21 22 16 7 7 7 7 7 8 8 8 7 5 5 5 6 7 6 8 8 9 8 9 10 11 12 12 12 13 15 15 15 16 18 19 20 19 17 21 17 17 16 18 16 19 20 19 21 19 18
8 6 9 11 12 12 13 13 12 11 12 12 13 13 13 14 15 12 11 9 8 8 8 10 12 12 11 10 9 9 8 18 19 20 20 19 20 9 7 6 6 5 7 8 6 4 4 4 5 6 7 7 10 14 13 10 9 10 11 12 12 12 15 17 24 23 19 16 15 15 17 20 25 25 23 21 19 17 17 16 16 15 15 17 20
8 9 10 10 10 11 12 13 13 13 13 14 15 14 14 13 12 10 12 11 12 12 12 12 10 11 12 11 10 8 7 14 20 19 19 20 15 5 6 6 5 6 7 7 5 4 4 4 5 5 6 7 10 14 15 15 10 11 11 11 11 13 14 12 17 22 24 27 30 32 35 35 33 32 33 34 26 22 17 16 21 14 17 21 22
5 5 7 3 3 4 7 11 13 14 14 16 16 14 12 9 12 12 14 13 13 12 10 9 9 10 12 12 11 10 8 13 20 19 19 20 13 7 6 6 6 5 4 4 3 3 4 10 9 8 9 9 12 15 15 13 10 9 11 14 16 13 14 14 13 13 21 28 33 33 30 28 31 34 36 35 32 25 16 19 20 16 19 18 20
3 3 2 1 3 4 5 5 7 10 13 13 12 13 14 13 10 9 9 10 10 9 9 9 8 8 8 9 13 11 9 11 20 19 20 20 13 6 7 6 6 6 5 4 4 3 4 6 12 11 10 11 15 15 17 13 9 10 12 13 13 15 14 14 13 15 12 11 12 11 14 21 18 16 19 31 31 27 19 20 18 16 18 19 17
3 2 2 4 5 5 5 7 7 7 7 5 5 6 5 7 9 10 8 8 9 9 9 9 11 9 8 9 10 10 10 8 12 21 20 20 18 8 6 7 7 7 5 5 3 3 5 6 8 11 13 14 14 15 15 16 12 11 9 10 11 13 11 11 13 13 15 12 11 13 15 15 14 14 13 14 15 15 18 17 17 16 17 16 14
2 3 3 4 4 6 5 7 8 7 7 8 7 7 6 8 8 8 9 7 8 9 10 9 9 8 8 8 9 9 10 11 12 21 20 21 21 15 8 8 7 6 6 5 4 4 5 5 5 9 12 12 13 15 16 18 18 12 9 9 10 16 19 13 14 17 11 12 13 13 13 11 12 11 12 12 12 14 15 16 15 16 16 17 18
0 1 3 4 5 6 6 5 6 7 7 9 9 9 7 8 8 9 8 8 10 11 10 9 9 8 7 8 8 9 11 16 10 19 21 21 20 19 9 8 7 7 6 5 6 5 5 4 5 6 10 12 14 16 19 19 21 12 11 19 24 24 17 13 10 10 11 10 11 12 12 11 10 10 11 11 13 14 15 15 16 17 16 17 18
1 1 2 3 4 5 5 7 7 6 7 8 10 10 8 9 10 10 10 10 10 11 11 10 9 9 7 7 6 5 7 10 16 11 20 21 21 20 17 12 15 9 7 7 6 4 3 4 4 8 11 13 15 17 18 20 16 11 19 21 21 24 19 9 10 11 11 11 10 12 11 11 12 12 11 12 13 14 15 16 18 18 18 18 21
2 3 3 3 3 3 4 6 7 7 8 8 8 9 9 9 9 9 10 11 10 11 9 10 10 10 11 9 6 6 7 8 14 18 16 22 20 21 19 18 17 9 7 5 4 4 3 3 3 9 12 14 15 16 17 16 12 18 19 20 21 19 10 10 10 10 12 12 12 11 12 10 10 12 13 13 16 18 21 19 16 19 20 20 20
3 3 4 4 5 5 5 6 7 8 9 11 12 10 11 11 11 9 10 10 10 11 10 10 11 10 10 11 9 8 7 6 7 15 20 19 20 20 19 19 17 16 7 4 5 4 4 7 8 9 10 12 14 14 11 12 15 17 19 20 18 8 8 9 10 11 12 12 12 11 11 11 12 14 16 18 19 17 16 15 15 15 15 17 17
6 7 5 6 7 6 8 7 8 9 11 10 12 12 14 14 13 12 11 11 11 11 11 12 12 13 9 8 9 9 8 9 9 10 13 14 15 19 19 18 16 15 10 5 7 6 7 5 4 6 8 8 7 6 6 8 15 18 18 17 8 8 7 9 10 11 11 11 11 12 12 12 14 15 17 17 15 15 15 16 15 14 13 15 17
7 7 8 8 8 9 10 8 8 8 10 10 9 10 10 11 12 13 14 13 13 12 11 7 10 10 8 9 8 7 7 6 8 9 9 9 8 10 12 11 15 12 5 5 4 1 1 1 0 4 4 7 8 8 9 10 9 9 7 6 6 7 8 8 9 11 12 12 13 13 13 14 14 15 14 14 15 15 13 16 16 16 14 15 17
9 9 10 8 8 10 10 11 12 10 11 12 12 11 11 12 13 15 16 17 16 15 11 10 11 10 10 9 9 10 9 8 11 11 11 10 9 7 6 6 6 5 6 4 4 5 4 3 3 2 1 2 2 2 3 3 6 7 7 6 7 8 11 17 17 12 11 11 12 13 13 13 14 14 15 14 14 15 14 15 14 17 15 15 16
10 9 7 7 8 8 9 9 11 11 11 11 11 11 12 14 15 13 11 10 13 15 16 15 16 16 16 16 17 12 7 9 12 13 12 15 13 11 9 8 7 6 8 10 7 5 4 3 2 2 2 2 4 4 4 4 5 5 6 7 7 7 8 7 9 10 10 11 12 13 14 14 15 14 14 15 15 15 14 14 14 14 16 13 16
9 10 8 8 8 8 9 9 9 9 8 9 9 8 6 10 8 8 8 11 16 14 13 14 15 14 14 13 15 17 17 15 19 23 21 21 20 18 15 15 14 11 10 13 9 5 4 2 1 0 1 1 3 3 4 5 6 7 7 9 9 8 8 8 9 10 11 11 12 13 14 14 15 14 15 16 16 14 14 16 16 14 14 15 15
9 9 8 9 11 11 10 9 8 8 8 7 7 7 5 6 11 12 8 12 15 17 16 16 17 18 14 13 11 8 8 17 24 23 23 22 21 20 19 17 17 15 16 11 5 5 4 2 1 1 2 2 3 4 4 5 5 6 7 7 7 9 10 8 9 10 11 11 12 12 13 13 14 15 16 17 17 16 14 12 13 14 13 14 15
12 11 10 10 10 9 9 9 8 9 8 8 8 7 7 7 5 14 16 13 17 17 17 18 19 20 17 14 12 7 16 24 25 24 23 22 21 20 18 17 17 15 14 11 7 5 5 3 2 2 2 2 3 3 3 4 5 6 7 8 9 8 9 10 11 10 11 12 12 13 13 13 14 15 16 16 17 16 15 15 13 14 14 13 14
14 14 10 9 8 9 9 9 10 10 11 11 10 10 10 10 10 8 11 15 17 16 18 18 20 20 19 19 19 17 21 24 27 25 23 22 21 19 18 18 16 16 15 7 6 6 4 4 3 3 2 3 3 3 4 4 5 6 6 7 9 9 9 12 14 12 11 12 13 12 13 14 15 16 16 16 16 16 16 15 14 13 14 15 15
15 14 11 10 10 9 10 10 10 11 11 10 11 11 11 11 10 10 9 9 11 12 14 18 20 21 21 21 21 21 24 25 24 23 23 21 20 20 18 13 16 13 9 7 6 6 5 4 3 3 3 3 2 3 4 5 5 6 7 8 8 9 11 12 11 11 11 12 11 11 12 13 13 15 15 16 14 14 16 16 14 14 14 14 15
14 15 18 12 9 11 10 10 11 10 10 11 12 12 12 11 10 11 12 13 12 11 9 11 17 21 17 17 21 24 23 24 23 22 22 21 21 21 19 11 8 6 6 4 5 5 5 4 4 3 3 2 2 2 5 5 6 6 7 8 9 9 10 11 11 11 12 12 12 12 12 14 14 13 14 15 15 15 14 14 15 14 15 15 16
14 12 11 12 11 9 9 10 10 11 12 12 11 11 10 10 11 11 11 11 10 10 9 9 9 16 25 20 23 22 22 22 21 21 20 20 21 20 10 7 7 5 5 4 4 3 3 4 3 3 1 1 2 4 4 5 6 6 7 8 10 10 11 11 11 11 11 11 12 15 15 14 14 14 14 14 15 15 14 15 15 15 15 15 14
12 11 11 9 9 9 9 9 10 10 10 9 10 10 10 10 10 10 11 11 11 11 11 12 12 13 14 10 18 21 24 21 20 19 18 19 18 9 7 8 7 6 6 5 4 3 4 3 3 2 2 2 3 4 4 5 6 6 8 9 9 11 11 10 12 12 13 13 13 13 14 14 13 13 13 16 17 14 14 14 15 16 15 17 18
14 13 12 10 9 10 9 9 10 11 10 10 10 11 11 11 12 12 12 12 13 13 13 13 13 14 15 12 16 11 15 20 20 14 11 10 7 6 6 6 6 7 6 5 4 4 3 3 2 3 2 3 4 4 4 5 5 6 7 8 9 10 17 15 15 13 13 12 12 13 13 13 13 14 14 14 15 15 15 15 15 16 17 16 13
14 16 19 16 12 10 10 10 10 11 10 10 11 12 12 12 13 12 12 12 13 13 12 13 13 13 13 12 12 14 16 11 10 9 7 6 5 5 6 6 6 5 5 4 3 3 3 3 4 3 3 4 4 4 4 5 5 6 7 8 10 10 11 10 11 11 11 12 13 13 13 13 12 13 13 14 15 14 16 17 16 16 17 17 15
14 12 13 17 10 11 10 10 10 11 11 12 12 12 12 13 14 14 13 14 14 14 14 14 13 12 11 12 13 13 13 11 10 8 9 8 8 6 6 6 6 6 6 5 5 4 4 4 3 3 3 3 4 4 4 5 5 7 7 8 9 10 11 11 11 12 11 12 13 12 13 13 13 13 13 13 15 16 17 17 17 16 16 16 17
13 13 11 12 14 10 10 10 11 12 12 12 12 12 13 13 12 12 12 13 13 13 13 12 12 11 10 14 22 19 14 12 11 9 8 8 7 6 5 5 6 5 5 5 4 4 4 4 3 3 3 4 4 4 4 4 6 6 7 8 8 9 10 11 11 11 13 13 13 13 13 13 14 14 15 16 18 18 16 16 16 15 16 15 16
13 11 10 9 11 10 10 11 11 12 12 12 12 12 12 12 12 12 12 13 12 11 11 11 10 10 13 25 23 23 12 9 9 9 7 7 7 6 5 5 4 4 5 4 4 4 4 3 3 3 4 4 3 3 4 5 6 7 7 8 9 9 10 11 12 13 14 13 14 14 13 13 16 16 16 16 16 16 16 15 15 16 15 16 15
14 12 10 9 10 11 12 11 11 11 12 12 11 10 11 12 11 11 12 11 12 12 12 11 9 9 12 21 19 18 9 8 6 9 8 7 7 6 6 5 5 4 4 3 3 3 4 4 4 4 4 5 4 4 4 6 6 7 8 8 9 9 10 11 12 12 13 14 14 14 14 14 15 14 15 15 16 16 16 17 16 16 15 16 15
12 10 9 10 10 10 9 9 10 10 10 11 11 10 11 11 11 12 13 13 13 11 11 11 11 11 11 14 12 9 8 7 8 8 8 8 7 7 7 6 4 4 2 2 3 4 4 4 4 4 4 4 4 4 5 6 7 7 8 7 8 9 10 11 12 13 14 14 14 13 13 15 16 15 15 15 16 17 18 17 17 16 16 15 16
10 9 9 9 9 9 9 9 10 10 10 10 10 10 10 11 12 12 12 12 10 10 10 10 11 11 8 9 9 9 8 7 7 7 7 7 7 6 6 5 4 3 2 3 3 4 4 5 4 4 4 4 4 4 6 7 7 7 7 8 8 9 10 12 13 14 14 15 13 11 13 14 15 15 15 15 16 17 17 17 17 17 18 17 17
9 9 9 10 9 9 9 10 9 10 11 11 12 11 11 10 11 12 11 11 11 11 11 11 10 9 7 9 9 8 8 8 7 7 6 6 6 6 6 5 3 2 2 3 3 4 4 4 4 4 4 4 5 5 6 7 7 7 8 7 9 10 11 12 13 14 15 14 11 11 14 15 15 15 16 17 16 17 17 18 16 16 16 18 18
9 9 10 10 10 10 9 10 10 10 11 10 11 11 11 10 10 10 9 11 12 10 12 11 10 9 9 9 9 9 8 8 8 7 7 6 6 7 5 4 3 2 3 3 3 4 4 4 4 4 4 4 5 7 7 7 6 7 7 8 8 10 10 11 13 14 14 13 11 11 14 15 15 16 17 17 17 17 18 17 16 19 18 17 16
8 8 9 9 10 10 10 10 11 11 11 11 11 10 10 10 10 10 9 10 11 10 10 10 9 8 8 8 8 8 8 7 7 6 6 5 6 5 4 3 2 3 2 2 3 3 4 4 4 3 4 5 6 6 7 7 7 7 8 8 9 10 15 19 14 14 13 12 9 11 14 14 14 15 16 17 17 17 18 18 18 16 17 17 17
8 8 9 9 10 10 11 11 11 11 11 11 11 11 10 11 10 10 10 10 10 10 10 11 9 8 8 8 9 9 8 8 8 6 5 6 6 4 4 3 2 1 1 2 3 3 4 4 4 4 5 5 6 7 7 7 8 8 8 9 12 20 24 23 17 15 18 12 9 12 13 13 15 16 16 16 17 17 17 17 17 18 17 16 16
8 8 9 9 9 9 8 9 10 10 10 11 12 11 11 11 11 10 10 10 9 10 11 9 9 8 9 10 9 9 8 8 7 6 5 6 5 4 3 2 1 0 1 2 3 4 4 3 3 4 5 6 6 6 6 7 7 9 9 10 19 24 21 21 21 22 16 9 11 11 12 13 14 15 14 15 16 18 18 17 18 17 16 17 17
8 9 8 9 9 10 10 10 10 10 10 11 11 12 12 11 11 10 10 8 13 11 9 8 8 8 8 8 8 8 8 7 6 6 6 6 5 4 3 2 0 0 1 2 3 4 4 4 4 5 5 6 6 6 6 7 7 8 13 21 22 20 21 21 16 19 21 13 9 11 12 14 15 16 16 15 16 16 19 19 18 17 16 16 17
Wind_Direction
203 211 203 208 204 204 206 202 203 199 195 195 198 198 192 188 189 188 158 185 180 180 183 185 182 182 179 180 180 180 178 177 178 175 178 177 174 170 168 175 177 180 168 178 174 175 188 202 209 201 178 203 213 215 214 212 216 226 224 229 240 236 238 250 267 276 287 242 274 289 276 301 294 228 289 293 287 284 277 270 273 277 274 268 268
207 211 203 205 203 207 204 198 194 189 193 194 200 197 194 191 186 171 185 184 178 184 184 182 182 180 180 181 181 179 179 177 176 173 175 173 174 173 175 176 179 179 174 186 179 181 183 199 214 200 194 206 219 221 212 212 213 226 231 228 237 241 228 253 260 272 285 295 278 289 289 293 289 294 283 302 301 278 277 278 257 259 268 272 269
211 208 203 200 204 203 197 192 189 192 193 196 200 197 196 191 180 184 185 182 181 182 183 179 180 179 181 181 179 179 178 176 176 176 178 177 176 178 178 177 181 181 185 188 180 175 184 199 211 196 193 211 220 223 212 221 218 227 233 229 238 238 238 239 260 272 279 286 295 299 297 285 275 302 306 291 285 292 290 285 279 266 253 256 263
209 207 208 208 202 192 194 193 190 194 198 200 202 199 192 188 183 186 183 176 180 183 178 179 176 179 180 179 180 177 176 176 175 180 178 178 178 178 176 180 183 185 184 180 179 179 190 199 209 196 198 216 225 223 220 222 226 232 235 235 236 240 242 238 247 266 280 287 291 290 296 302 295 283 286 293 294 299 295 288 277 272 268 259 252
200 205 206 207 199 196 196 190 193 196 201 200 202 193 189 184 183 185 177 180 181 172 177 176 178 179 183 181 179 178 178 174 174 177 179 178 179 175 178 178 181 181 180 179 179 181 189 204 205 196 201 217 227 223 218 223 226 227 231 234 236 243 241 242 251 253 267 274 283 287 289 290 292 290 303 303 296 286 284 284 287 280 275 263 256
204 202 204 202 201 200 198 194 199 200 201 201 199 192 186 183 182 184 179 178 175 178 175 179 182 185 183 180 178 177 173 173 176 176 175 174 175 177 173 174 175 175 179 181 183 187 191 200 199 201 209 219 226 223 220 229 231 232 234 235 238 240 242 243 244 245 250 261 270 287 289 289 299 289 297 290 296 297 290 280 272 266 271 281 275
202 202 202 203 203 203 198 200 200 201 200 198 189 184 186 185 180 183 181 177 174 177 181 179 184 180 180 174 176 172 170 170 172 174 175 176 174 171 169 172 176 177 185 185 188 193 197 200 206 212 218 221 220 226 234 239 236 239 235 238 236 237 242 242 241 247 250 260 269 271 281 284 280 291 300 282 274 284 290 300 296 290 273 268 280
202 202 200 203 205 204 204 204 200 200 195 189 185 187 183 181 185 181 173 178 181 180 178 179 176 176 175 174 172 167 168 172 174 174 171 170 169 171 172 175 177 182 180 188 188 198 204 206 211 219 224 226 224 231 232 239 238 243 238 235 234 240 245 245 248 254 259 260 265 269 271 280 288 283 283 288 282 286 276 284 288 294 301 296 286
202 200 201 206 209 206 203 201 198 191 187 184 183 184 183 182 179 176 179 181 181 180 176 172 167 171 171 171 168 170 172 176 174 171 169 172 173 174 175 176 177 176 178 188 198 201 208 212 215 219 224 236 239 241 237 236 235 237 236 223 229 238 245 246 253 253 254 254 260 264 273 277 277 283 285 284 284 283 295 290 288 289 289 288 291
200 200 203 209 209 201 198 194 191 186 182 185 187 181 178 177 176 177 181 181 175 172 170 172 173 174 171 171 170 172 178 175 176 176 173 169 171 171 169 173 175 180 183 190 198 203 209 214 216 228 236 239 243 247 251 253 256 258 257 253 247 244 247 255 256 250 253 261 259 266 269 271 278 274 285 284 289 292 291 293 289 291 292 283 280
202 202 210 211 203 192 188 192 182 185 188 184 178 176 177 175 178 179 178 176 173 170 169 171 178 177 175 173 173 177 177 174 177 181 179 176 169 168 172 178 180 182 186 187 196 207 213 214 214 223 233 244 250 252 257 259 263 266 268 269 268 266 264 265 259 253 262 267 272 269 268 274 276 282 278 286 287 284 289 288 287 289 289 291 292
202 208 213 201 191 188 190 183 182 186 179 183 179 178 172 174 177 177 174 173 172 165 173 179 175 175 174 174 176 176 175 177 182 183 183 181 177 176 176 177 179 183 186 192 198 201 207 210 217 212 217 223 226 242 254 260 265 268 270 272 273 273 272 271 275 270 260 266 274 272 276 276 281 278 282 283 286 286 282 283 280 282 280 281 274
204 209 206 193 194 189 184 182 183 180 184 178 173 170 174 174 175 174 179 173 159 172 178 170 177 174 174 173 177 178 178 183 185 185 186 186 183 176 176 175 177 181 187 192 196 199 203 212 218 217 206 243 255 258 254 260 264 268 272 275 276 276 275 274 271 272 278 276 273 275 271 279 280 280 273 279 282 279 283 279 278 274 274 270 272
206 208 197 195 191 187 182 179 183 183 173 170 168 173 175 182 177 171 161 161 172 173 173 176 173 177 178 179 179 181 182 188 187 188 189 188 184 175 176 177 182 185 187 191 194 201 211 214 214 214 230 243 243 241 245 251 252 256 258 258 256 264 271 272 274 274 275 276 277 275 275 269 275 274 279 279 281 279 278 276 274 277 270 268 270
206 201 193 193 183 185 183 182 182 174 170 167 169 176 179 173 171 173 172 174 175 178 176 176 179 177 179 178 178 180 184 189 190 191 192 190 187 175 170 175 180 184 188 197 204 204 209 204 220 236 243 248 241 248 249 251 253 257 259 260 262 261 262 268 275 273 263 260 262 266 273 275 274 279 279 279 268 275 271 274 273 273 274 276 271
213 197 199 195 194 189 181 181 177 170 167 169 174 178 179 179 176 172 169 172 172 167 175 176 175 178 177 172 170 176 178 191 192 191 189 187 188 172 163 173 179 182 193 196 198 205 202 209 217 237 244 246 253 261 265 267 266 268 271 270 269 274 277 273 273 274 273 271 271 276 282 285 287 286 286 286 285 284 286 288 290 286 290 287 281
219 209 212 204 199 190 185 178 174 171 172 173 180 181 179 180 176 167 169 173 172 178 179 179 176 172 172 172 170 170 170 190 189 187 187 187 183 152 167 165 177 175 186 195 201 208 205 210 221 233 248 248 258 265 270 277 277 274 273 279 280 276 267 264 274 281 281 284 283 285 285 285 286 289 290 293 296 300 304 295 284 288 283 277 278
237 227 230 230 233 221 196 181 177 176 176 183 184 184 178 174 176 173 174 171 178 181 171 168 173 174 173 174 171 165 168 187 184 185 186 189 178 163 168 164 170 180 181 197 201 211 220 230 234 239 248 256 264 272 275 279 279 284 287 280 275 274 283 290 291 283 285 286 284 281 284 289 293 295 293 292 292 291 282 277 280 283 275 272 276
297 277 280 185 182 181 192 201 195 185 187 188 180 177 179 179 168 165 172 169 171 162 164 166 166 170 173 167 165 163 166 185 184 183 186 189 181 154 168 167 173 187 181 196 206 208 231 242 248 248 252 259 268 276 282 286 286 279 276 282 286 289 290 296 296 291 277 262 272 292 295 292 289 286 283 286 287 287 280 276 277 271 272 273 269
247 200 169 156 161 170 179 184 184 186 188 171 173 176 156 152 165 169 165 163 161 162 164 167 168 169 165 162 171 163 167 182 189 185 188 190 184 165 167 171 186 186 180 181 194 222 227 247 252 257 265 274 280 283 284 285 282 279 285 288 288 288 298 289 279 282 293 303 299 294 290 288 282 276 271 274 277 276 279 274 273 271 266 269 271
197 184 152 150 163 172 172 183 182 177 168 164 153 148 159 161 155 163 160 155 150 158 165 167 165 166 166 165 165 165 170 173 189 186 187 188 187 172 175 180 179 175 177 184 191 206 231 240 253 265 271 278 285 288 288 287 291 296 295 287 288 292 298 295 299 306 304 303 298 294 289 283 281 276 276 280 281 288 286 280 278 281 286 291 290
173 139 166 170 172 172 173 168 166 161 151 149 155 160 154 151 160 160 159 161 164 166 164 165 166 165 165 166 170 167 176 179 176 187 186 187 189 181 166 181 172 164 182 192 209 209 218 236 251 271 280 287 290 288 292 298 301 302 296 295 296 302 304 304 312 314 304 296 289 287 284 282 281 283 281 281 287 289 291 287 284 282 280 278 279
152 164 171 177 175 168 164 161 155 151 157 160 160 161 155 157 162 162 161 164 168 169 169 166 163 166 165 173 172 159 169 179 181 184 186 186 188 189 178 178 190 179 193 202 191 194 211 235 257 275 286 285 286 297 304 304 307 300 298 302 305 308 311 319 316 307 296 287 282 281 282 288 296 295 290 291 291 296 296 293 292 289 283 279 274
158 162 167 169 158 160 162 159 151 152 155 157 160 157 164 166 165 172 168 168 171 173 178 171 170 172 173 175 172 171 180 174 185 184 185 185 187 190 188 184 192 189 187 172 189 193 177 197 237 263 272 288 304 308 305 306 302 302 305 308 313 317 323 315 303 293 290 289 290 288 291 291 291 292 296 298 301 301 299 293 288 286 285 283 278
203 205 192 170 172 172 162 170 166 166 168 165 167 170 170 170 172 179 174 180 181 181 181 175 178 176 174 179 175 173 177 175 177 185 185 185 185 187 190 190 192 196 188 155 152 167 232 245 256 273 297 310 309 311 309 305 303 306 311 316 319 325 311 297 296 295 293 291 290 288 288 292 294 294 297 300 296 293 290 286 281 276 276 276 276
210 211 192 185 183 169 175 181 181 179 177 184 186 182 176 178 179 178 182 186 185 183 181 182 182 181 177 159 163 165 163 172 180 180 184 182 185 186 187 192 194 194 177 175 193 209 224 251 301 321 312 309 310 302 294 294 305 313 315 316 311 300 293 294 290 288 282 287 291 294 295 297 298 297 296 295 295 292 295 292 294 290 290 291 291
223 208 201 193 182 176 183 185 187 190 190 190 191 189 189 187 183 182 186 186 189 190 185 162 171 177 160 166 147 145 147 160 171 177 172 176 179 185 185 190 186 183 163 116 129 105 92 109 322 291 315 306 307 303 302 308 311 305 297 292 289 286 285 275 275 282 289 291 293 292 293 296 296 299 297 298 293 291 290 292 293 293 294 293 291
229 224 211 196 189 187 192 187 186 193 198 195 193 192 193 193 191 191 189 190 187 192 180 173 177 167 153 155 160 164 168 169 181 178 178 171 171 168 168 159 159 138 145 152 143 130 114 78 48 63 7 336 300 300 288 282 279 281 287 290 289 284 283 288 291 285 281 285 288 291 292 297 299 297 297 293 291 291 294 291 292 292 293 294 291
239 238 219 199 203 195 197 193 198 196 199 204 209 205 198 198 205 210 210 201 195 187 183 188 188 185 175 175 158 163 159 182 189 183 177 176 168 165 168 171 162 160 169 174 131 111 102 90 73 38 36 339 324 312 297 283 276 279 293 292 285 288 290 286 283 286 289 291 290 294 297 300 298 298 295 294 293 295 294 290 286 289 293 289 285
239 238 217 210 208 194 201 201 200 203 203 206 210 218 228 225 228 219 209 204 208 209 196 192 187 174 179 185 179 176 184 186 178 176 173 173 174 173 170 166 165 159 187 153 130 118 110 100 80 302 302 298 293 294 296 297 305 314 304 307 303 296 285 281 283 285 287 286 288 293 296 299 299 301 300 297 297 295 294 295 294 293 291 291 289
246 241 220 217 209 200 201 198 194 196 196 199 201 203 206 221 228 224 217 205 203 208 202 197 190 187 179 168 178 179 166 169 170 169 171 173 175 174 170 167 162 165 145 114 76 111 124 125 187 199 228 232 257 269 283 300 307 302 298 298 292 290 288 287 286 287 288 291 291 291 292 297 299 302 302 300 300 300 298 292 289 292 288 289 287
250 243 228 227 210 200 197 192 186 186 190 185 188 188 190 196 214 218 214 205 202 203 197 187 187 183 181 168 158 152 161 163 167 170 171 174 175 170 163 159 158 154 146 129 111 128 135 161 191 213 216 238 254 264 283 293 289 288 291 298 294 290 296 295 294 293 292 293 295 297 300 302 303 301 301 301 301 300 300 300 298 294 293 287 283
250 251 241 223 212 199 194 192 190 188 188 184 188 185 188 186 188 185 204 209 205 204 200 191 183 178 169 166 165 161 161 165 167 169 173 173 168 161 156 153 156 143 122 97 128 142 161 168 201 211 219 243 266 286 287 286 283 287 287 288 292 296 294 291 294 291 288 291 297 300 303 303 303 302 301 302 304 304 303 299 298 293 293 292 290
249 250 242 219 205 201 201 197 192 194 191 188 187 187 191 188 184 179 172 175 196 206 202 192 183 176 169 165 164 162 161 163 167 168 166 164 160 155 149 148 141 136 133 140 135 146 154 173 201 213 218 235 256 283 286 281 282 284 289 285 289 294 293 292 292 292 294 296 296 297 299 296 297 301 303 305 301 299 301 300 298 297 296 293 292
257 250 244 226 205 208 203 197 197 192 188 188 187 188 189 186 179 180 178 179 180 176 169 171 173 168 167 164 161 158 158 162 163 163 164 161 155 150 138 125 110 80 68 89 128 142 159 183 196 211 214 243 262 277 276 284 282 289 291 297 298 294 294 294 292 296 298 300 301 302 298 297 297 297 300 302 304 304 299 298 298 295 295 295 293
259 253 245 223 213 210 201 200 196 192 191 191 187 185 180 177 180 181 179 178 172 161 156 156 155 164 159 156 157 158 159 159 161 161 161 157 154 142 129 143 130 132 128 137 142 164 168 185 196 213 206 257 270 267 268 278 286 289 297 296 297 295 293 293 296 299 297 298 300 298 298 295 297 299 301 298 296 296 297 298 296 296 292 289 285
258 252 245 228 216 208 204 200 199 196 189 178 176 177 180 181 176 176 176 175 167 164 157 150 146 153 154 160 161 160 159 156 155 156 156 156 148 131 137 151 153 141 143 148 157 171 180 205 193 203 228 243 258 261 274 282 289 294 296 296 288 290 287 288 297 302 305 305 299 296 295 295 298 301 304 306 304 297 293 294 297 296 295 292 293
264 251 246 229 211 207 200 198 196 183 180 178 179 177 180 178 177 177 176 171 167 163 160 161 161 158 156 163 160 154 155 153 146 131 119 100 86 109 124 130 137 145 146 150 163 169 184 201 198 198 236 236 258 273 275 286 289 291 290 288 290 280 295 301 302 297 293 294 294 296 298 298 300 304 306 303 302 302 300 301 302 302 300 295 293
263 257 250 235 210 202 197 189 183 182 183 179 180 180 181 177 175 176 173 169 166 166 164 162 163 159 158 157 149 152 143 135 126 127 131 113 111 114 128 128 125 119 129 150 168 174 188 207 215 213 229 240 255 267 275 281 286 286 286 286 287 290 297 299 300 300 297 295 295 297 298 299 301 305 307 304 302 301 302 303 303 302 301 303 300
256 252 244 230 209 201 189 189 181 182 183 178 183 182 180 178 180 176 170 167 169 168 167 163 163 161 158 154 153 150 146 148 146 149 146 140 122 118 129 138 138 143 156 170 177 186 197 216 209 226 242 248 255 266 269 276 277 282 283 281 285 293 298 299 300 300 297 293 293 298 301 302 305 307 305 303 304 305 306 305 304 302 300 298 298
252 243 233 219 203 191 187 186 187 186 183 181 183 180 183 179 175 170 167 168 167 166 163 162 156 156 161 162 160 154 149 151 150 148 152 148 145 142 142 138 142 149 161 168 175 189 202 209 226 231 252 250 255 263 273 278 280 280 279 284 288 290 294 297 297 296 295 297 299 301 300 306 311 314 313 310 308 307 303 302 300 301 301 298 298
248 242 225 213 199 189 187 190 191 183 180 180 180 181 177 174 171 167 166 164 163 160 155 153 153 151 163 160 155 150 140 134 137 135 130 134 137 138 140 137 146 154 155 161 176 191 204 213 230 237 250 264 264 270 276 280 279 280 280 286 291 295 299 301 302 296 295 299 303 302 302 308 314 313 308 307 309 307 306 305 303 303 303 302 299
244 234 223 197 193 191 190 188 178 179 180 180 180 173 168 165 163 160 159 159 159 158 157 152 148 157 162 162 149 136 116 136 127 133 132 132 133 138 145 150 158 161 143 154 181 194 202 217 238 234 241 250 254 262 272 277 279 284 284 286 292 296 300 300 300 297 298 302 302 303 306 314 316 313 312 309 307 307 307 307 307 306 305 304 305
232 225 207 195 192 187 184 175 178 179 179 171 163 163 161 159 157 158 160 159 162 160 156 154 155 158 162 155 132 117 131 132 137 133 135 133 139 144 148 156 149 121 125 180 220 202 204 219 237 254 248 256 253 254 258 262 266 268 280 283 288 292 294 296 296 298 302 306 306 309 317 318 316 313 310 309 310 310 311 311 311 310 309 309 308
227 209 190 181 179 173 174 170 168 166 157 154 156 157 157 156 158 158 156 156 152 148 148 153 157 160 154 133 130 137 135 134 131 131 134 138 140 141 151 143 124 132 150 214 217 211 209 223 230 252 272 269 265 267 268 267 262 263 266 278 286 292 294 295 295 296 300 302 304 314 321 321 318 315 312 310 312 312 311 313 314 312 313 314 317
205 188 180 172 169 166 164 162 161 157 158 160 156 156 155 155 154 155 154 150 149 148 148 154 156 147 134 130 128 130 134 129 133 129 129 128 133 141 134 120 118 142 189 219 218 221 226 222 226 240 257 278 286 281 273 270 273 272 277 275 281 281 287 289 293 299 302 304 310 322 322 321 318 314 310 313 313 312 310 312 312 312 313 313 307
189 173 172 164 165 157 156 151 152 153 151 151 150 152 152 152 148 146 148 146 147 147 150 151 147 140 135 134 138 134 132 132 134 136 139 139 132 120 105 103 127 179 219 231 238 238 242 243 241 241 261 273 277 276 279 276 279 282 286 287 282 286 286 295 300 300 302 309 317 327 324 323 317 319 315 315 315 314 315 314 317 317 317 314 312
166 154 155 148 146 144 145 147 145 146 145 148 146 147 142 139 138 139 138 141 143 145 144 136 130 127 126 127 125 129 125 126 120 125 129 134 111 100 108 127 166 194 219 259 260 252 246 253 253 260 268 272 275 277 280 287 287 287 287 287 289 286 291 293 295 302 310 314 325 328 326 321 318 317 316 316 316 318 318 319 320 321 320 321 320
132 134 135 140 139 144 144 147 147 150 146 142 139 139 137 137 137 136 141 142 146 145 143 138 132 128 123 126 121 115 120 120 123 129 129 108 91 98 117 160 175 175 202 262 260 264 264 268 270 269 262 269 266 271 279 286 291 288 288 288 288 291 294 296 309 312 314 318 334 331 326 321 319 318 317 318 317 318 316 318 321 322 323 322 319
113 120 123 124 126 127 127 131 137 136 137 139 140 137 138 135 136 137 138 137 135 133 111 119 131 134 132 127 128 131 130 135 136 137 131 98 98 110 149 157 151 161 217 253 275 277 277 272 272 269 267 264 267 270 277 280 284 289 285 286 290 292 301 320 320 316 324 346 341 336 327 322 321 319 319 319 319 319 321 323 323 325 324 325 326
101 104 108 113 117 122 127 131 132 133 139 140 141 139 141 142 142 141 140 132 122 127 134 135 134 135 136 134 131 131 131 128 128 127 121 109 133 154 168 152 136 64 279 265 275 279 277 277 276 270 270 271 277 280 283 282 281 283 295 295 300 318 329 329 328 329 337 354 349 338 331 330 326 325 324 325 324 325 323 322 325 328 330 329 329